Weather History for Surat Thani, Thailand

Change the Weather History Date:

Wednesday, September 19, 2012

  Actual Average Record
Temperature  
Mean Temperature 80 °F -  
Max Temperature 86 °F 89 °F - ()
Min Temperature 75 °F 73 °F - ()
Cooling Degree Days 16    
Growing Degree Days 30 (Base 50)    
Moisture  
Dew Point 75 °F    
Average Humidity 84    
Maximum Humidity 94    
Minimum Humidity 74    
Precipitation  
Precipitation 0.00 in 0.30 in - ()
Sea Level Pressure  
Sea Level Pressure 29.81 in    
Wind  
Wind Speed 5 mph ()    
Max Wind Speed 14 mph    
Max Gust Speed -    
Visibility 5.2 miles    
Events Rain    
T = Trace of Precipitation, MM = Missing Value Source: Averaged Metar Reports

Daily Weather History Graph

Daily Weather History Graph

Search for Another Location

Airport:

Trip Planner

Search our weather history database for the weather conditions in past years. The results will help you decide how hot, cold, wet, or windy it might be!

Date:

Astronomy

Sep. 19, 2012 Rise Set
Actual Time 6:12 AM ICT 6:21 PM ICT
Civil Twilight 5:52 AM ICT 6:42 PM ICT
Nautical Twilight 5:27 AM ICT 7:06 PM ICT
Astronomical Twilight 5:03 AM ICT 7:30 PM ICT
Moon 8:55 AM ICT (9/19) 9:00 PM ICT (9/19)
Length of Visible Light 12h 50m
Length of Day
12h 08m
Waxing Crescent, 13% of the Moon is Illuminated
Sep 19
Waxing Crescent
Sep 23
First Quarter
Sep 30
Full
Oct 8
Last Quarter
Oct 15
New

Hourly Weather History & Observations

Time (ICT) Temp. Heat Index Dew Point Humidity Pressure Visibility Wind Dir Wind Speed Gust Speed Precip Events Conditions
1:00 AM 77 °F - 74 °F 87% 29.81 in 5 mi Calm Calm - -   Mist
6:00 AM 75.2 °F - 73.4 °F 94% 29.77 in 3.7 mi South 5.8 mph - N/A   Mostly Cloudy
7:00 AM 75 °F - 72 °F 89% 29.81 in 6 mi South 4.6 mph - -   Scattered Clouds
7:00 AM 77.0 °F - 73.4 °F 89% 29.80 in 5.0 mi SSW 5.8 mph - N/A   Mostly Cloudy
8:00 AM 78.8 °F - 75.2 °F 89% 29.83 in 6.2 mi South 5.8 mph - N/A   Mostly Cloudy
9:00 AM 80.6 °F 86.2 °F 75.2 °F 84% 29.86 in 6.2 mi SSW 8.1 mph - N/A   Mostly Cloudy
10:00 AM 82.4 °F 89.5 °F 75.2 °F 79% 29.86 in 5.0 mi SSW 8.1 mph - N/A   Mostly Cloudy
12:00 PM 78.8 °F - 75.2 °F 89% 29.86 in 4.3 mi SW 6.9 mph - N/A Rain Light Rain
1:00 PM 81 °F - 78 °F 87% 29.85 in 4 mi WSW 3.5 mph - - Rain Light Rain
1:00 PM 80.6 °F 86.2 °F 75.2 °F 84% 29.83 in 4.3 mi SW 9.2 mph - N/A Rain Light Rain
2:00 PM 82.4 °F 89.5 °F 75.2 °F 79% 29.80 in 5.0 mi WSW 9.2 mph - N/A   Mostly Cloudy
3:00 PM 84.2 °F 92.3 °F 75.2 °F 74% 29.74 in 6.2 mi WSW 13.8 mph - N/A   Mostly Cloudy
4:00 PM 84.2 °F 92.3 °F 75.2 °F 74% 29.77 in 6.2 mi WSW 8.1 mph - N/A   Mostly Cloudy
5:00 PM 84.2 °F 94.1 °F 77.0 °F 79% 29.77 in 5.0 mi WSW 4.6 mph - N/A   Mostly Cloudy
6:00 PM 80.6 °F 86.2 °F 75.2 °F 84% 29.77 in 6.2 mi WSW 8.1 mph - N/A   Mostly Cloudy
7:00 PM 81 °F - 75 °F 78% 29.79 in 6 mi Calm Calm - -   Partly Cloudy
7:00 PM 80.6 °F 85.4 °F 73.4 °F 79% 29.80 in 5.0 mi WSW 5.8 mph - N/A   Mostly Cloudy
8:00 PM 77.0 °F - 75.2 °F 94% 29.80 in 5.0 mi SW 2.3 mph - N/A   Scattered Clouds
9:00 PM 77.0 °F - 73.4 °F 89% 29.86 in 5.0 mi SSW 3.5 mph - N/A   Scattered Clouds